This is the latest recevied weather packets stored in our database for station/object HP1PCR-13. If no packets are shown the sender has not sent any weather packets the latest 10 day(s).
| Time | Temp. | Humidity | Pressure | Rain* | Wind** | Luminosity | Snow |
|---|---|---|---|---|---|---|---|
| 1778113347 | 31.11° C | 30% | 1003.2 hPa | - | - | - | - |
| 1778112743 | 31.67° C | 28% | 1003.3 hPa | - | - | - | - |
| 1778112139 | 32.22° C | 32% | 1003.3 hPa | - | - | - | - |
| 1778111535 | 32.78° C | 36% | 1003.2 hPa | - | - | - | - |
| 1778110931 | 32.78° C | 36% | 1003.1 hPa | - | - | - | - |
| 1778110327 | 33.33° C | 37% | 1003.2 hPa | - | - | - | - |
| 1778109723 | 33.33° C | 36% | 1003.1 hPa | - | - | - | - |
| 1778109118 | 33.89° C | 33% | 1003 hPa | - | - | - | - |
| 1778108514 | 34.44° C | 42% | 1002.8 hPa | - | - | - | - |
| 1778107306 | 35° C | 45% | 1002.6 hPa | - | - | - | - |
| 1778106702 | 35° C | 45% | 1002.5 hPa | - | - | - | - |
| 1778104890 | 35° C | 46% | 1002.3 hPa | - | - | - | - |
| 1778104286 | 34.44° C | 46% | 1002.2 hPa | - | - | - | - |
| 1778103077 | 34.44° C | 45% | 1002.1 hPa | - | - | - | - |
| 1778102473 | 34.44° C | 45% | 1002.2 hPa | - | - | - | - |
| 1778101869 | 34.44° C | 45% | 1002.1 hPa | - | - | - | - |
| 1778101264 | 34.44° C | 46% | 1002.1 hPa | - | - | - | - |
| 1778100660 | 34.44° C | 46% | 1002.4 hPa | - | - | - | - |
| 1778099453 | 34.44° C | 46% | 1002.5 hPa | - | - | - | - |
| 1778098848 | 34.44° C | 45% | 1002.6 hPa | - | - | - | - |
| 1778098244 | 34.44° C | 45% | 1002.7 hPa | - | - | - | - |
| 1778096432 | 34.44° C | 47% | 1002.7 hPa | - | - | - | - |
| 1778095828 | 34.44° C | 48% | 1002.7 hPa | - | - | - | - |
| 1778095223 | 34.44° C | 50% | 1002.9 hPa | - | - | - | - |
| 1778094620 | 34.44° C | 50% | 1003 hPa | - | - | - | - |
* Rain since midnight (hover to see other rain measurements)
** Current wind speed in m/s (hover to see current wind gust speed)